DW7779 Weather Reports


time (UTC)temp
C
wind
direction
speed
KPH
gust
KPH
rain 1hr
cm
rain 24hr
cm
rain mn
cm
humidity
%
barometer
mb
20260906113034 11 0.0 0.0 0.00 0.00 0.00 87 1022.8
20260906111534 11 0.0 3.2 0.00 0.00 0.00 87 1022.7
20260906110030 11 0.0 0.0 0.00 0.00 0.00 87 1022.7
20260906104529 12 0.0 0.0 0.00 0.00 0.00 87 1022.5
20260906103028 12 0.0 0.0 0.00 0.00 0.00 86 1022.5
20260906101531 12 1.6 4.8 0.00 0.00 0.00 87 1022.4
20260906100030 12 0.0 3.2 0.00 0.00 0.00 87 1022.4
20260906094525 12 0.0 4.8 0.00 0.00 0.00 87 1022.5
20260906093035 12 0.0 4.8 0.00 0.00 0.00 87 1022.3
20260906091523 12 0.0 4.8 0.00 0.00 0.00 86 1022.2
20260906090036 12 0.0 1.6 0.00 0.00 0.00 86 1021.9
20260906084520 12 0.0 1.6 0.00 0.00 0.00 86 1021.7
20260906083021 12 0.0 1.6 0.00 0.00 0.00 85 1021.6
20260906081518 12 0.0 3.2 0.00 0.00 0.00 84 1021.6
20260906080019 13 0.0 3.2 0.00 0.00 0.00 84 1021.4
20260906074514 13 0.0 1.6 0.00 0.00 0.00 86 1021.2
20260906073012 13 0.0 1.6 0.00 0.00 0.00 84 1021.1
20260906071511 13 0.0 1.6 0.00 0.00 0.00 83 1020.9
20260906070012 14 0.0 4.8 0.00 0.00 0.00 82 1020.8
20260906064510 14 0.0 4.8 0.00 0.05 0.00 82 1020.8
20260906063010 14 0.0 4.8 0.00 0.05 0.00 82 1020.6
20260906061509 14 1.6 9.7 0.00 0.05 0.00 83 1020.5
20260906060008 15 0.0 4.8 0.00 0.05 0.00 81 1020.4
20260906054506 15 3.2 9.7 0.00 0.15 0.00 78 1020.6
20260906053007 15 0.0 4.8 0.00 0.15 0.00 81 1020.5
20260906051507 15 1.6 11.3 0.00 0.15 0.00 81 1020.3
20260906050004 15 4.8 9.7 0.00 0.15 0.00 79 1020.2
20260906044503 15 3.2 9.7 0.00 0.23 0.00 82 1020.2
20260906043002 14 3.2 12.9 0.00 0.23 0.00 81 1020.2
20260906041502 15 4.8 11.3 0.00 0.23 0.00 80 1020.2
20260906034627 15 1.6 4.8 0.00 0.23 0.00 81 1020.0
20260906033058 15 1.6 4.8 0.00 0.23 0.00 80 1020.1
20260906031600 15 3.2 8.0 0.00 0.23 0.00 77 1020.1
20260906030055 15 0.0 3.2 0.00 0.23 0.00 77 1020.2
20260906024554 14 0.0 11.3 0.00 0.23 0.00 81 1020.3
20260906023056 15 1.6 6.4 0.00 0.23 0.00 80 1020.3
20260906021552 15 0.0 1.6 0.00 0.23 0.00 81 1020.6
20260906020059 15 0.0 4.8 0.00 0.23 0.00 80 1020.7
20260906014547 14 0.0 3.2 0.00 0.25 0.00 83 1020.9
20260906013101 13 4.8 9.7 0.00 0.25 0.00 83 1020.9
20260906011548 14 3.2 6.4 0.00 0.25 0.00 82 1020.8
20260906010044 13 1.6 6.4 0.00 0.25 0.00 86 1020.8
20260906004542 13 0.0 3.2 0.00 0.25 0.00 85 1020.8
20260906003040 13 1.6 4.8 0.00 0.25 0.00 84 1020.7
20260906001537 13 0.0 3.2 0.00 0.25 0.00 87 1020.5
20260906000035 12 0.0 3.2 0.00 0.25 0.00 87 1020.4
20260905234535 12 0.0 4.8 0.00 0.25 0.00 87 1020.3
20260905233039 12 0.0 3.2 0.00 0.25 0.00 88 1020.1
20260905231530 12 0.0 3.2 0.00 0.25 0.00 88 1019.9
20260905230026 12 0.0 4.8 0.00 0.25 0.00 89 1019.7
20260905224523 12 0.0 6.4 0.00 0.28 0.00 91 1019.5
20260905223020 11 0.0 4.8 0.00 0.28 0.00 92 1019.4
20260905221517 11 0.0 3.2 0.00 0.28 0.00 94 1019.0
20260905220015 10 0.0 6.4 0.00 0.28 0.00 94 1019.0
20260905214515 10 0.0 4.8 0.00 0.28 0.00 94 1018.8
20260905213014 10 0.0 3.2 0.00 0.28 0.00 95 1018.5
20260905211508 10 1.6 3.2 0.00 0.28 0.00 95 1018.3
20260905210005 10 0.0 4.8 0.00 0.28 0.00 94 1018.0
20260905204504 10 0.0 6.4 0.00 0.28 0.00 95 1017.9
20260905203005 10 0.0 4.8 0.00 0.28 0.00 94 1017.4
20260905201501 10 3.2 6.4 0.00 0.28 0.00 94 1017.3
20260905200105 10 0.0 6.4 0.00 0.28 0.00 94 1017.1
20260905194558 10 0.0 6.4 0.00 0.28 0.00 94 1017.2
20260905193055 10 1.6 6.4 0.00 0.28 0.00 94 1017.0
20260905191554 10 1.6 6.4 0.00 0.28 0.00 94 1017.1
20260905190051 10 0.0 3.2 0.00 0.28 0.00 94 1016.7
20260905184550 10 0.0 6.4 0.00 0.33 0.00 95 1016.4
20260905183047 10 0.0 4.8 0.00 0.33 0.00 95 1016.2
20260905181545 10 0.0 6.4 0.00 0.33 0.00 95 1015.9
20260905174540 10 3.2 9.7 0.00 0.36 0.00 94 1015.5
20260905173139 10 3.2 8.0 0.00 0.36 0.00 93 1015.4
20260905171548 10 3.2 11.3 0.00 0.36 0.00 93 1015.2
20260905170033 11 1.6 9.7 0.00 0.36 0.00 93 1014.7
20260905164534 11 0.0 6.4 0.00 0.43 0.00 92 1014.6
20260905163034 11 3.2 14.5 0.00 0.43 0.00 92 1014.4
20260905161528 11 1.6 8.0 0.00 0.43 0.00 92 1014.0
20260905160025 11 3.2 8.0 0.00 0.43 0.00 92 1014.0
20260905154520 10 3.2 9.7 0.00 0.43 0.00 92 1013.6
20260905153021 10 4.8 9.7 0.00 0.43 0.00 92 1013.3
20260905151516 10 3.2 14.5 0.00 0.43 0.00 92 1013.0
20260905150013 10 3.2 14.5 0.00 0.43 0.00 93 1012.8
20260905144511 10 3.2 11.3 0.00 0.56 0.00 92 1012.4
20260905143008 10 3.2 16.1 0.00 0.56 0.00 91 1012.1
20260905141507 11 3.2 9.7 0.00 0.56 0.00 90 1011.9
20260905140104 11 1.6 8.0 0.00 0.56 0.00 90 1011.7
20260905134606 11 1.6 9.7 0.00 1.07 0.56 90 1011.5
20260905133057 11 0.0 9.7 0.00 1.07 0.56 91 1011.2
20260905131555 11 1.6 9.7 0.00 1.07 0.56 91 1010.8
20260905130051 11 4.8 12.9 0.00 1.07 0.56 91 1010.3
20260905124548 11 3.2 16.1 0.00 1.09 0.56 90 1009.9
20260905123045 11 6.4 14.5 0.00 1.09 0.56 91 1009.6
20260905121546 11 4.8 14.5 0.00 1.09 0.56 91 1009.4
20260905120050 11 4.8 16.1 0.00 1.09 0.56 90 1009.2
20260905114547 11 4.8 22.5 0.00 1.09 0.56 89 1008.9